• In Hungary
  • List of Countries
  • For 7 days
  • Water Temperature
  • Satellite Maps
  • Weather Map
  • News
  • Weather Widgets
  • user-avatar
    Login

    Hourly Weather Zarajec

    Today, 23 October, Tuesday

    Time Temperature Precipitation Wind Pressure Humidity
    00:00 +6°C° 0.1 mm 4 mps 744 mmHg 81%
    01:00 +7°C° 0 mm 3 mps 744 mmHg 84%
    02:00 +7°C° 0 mm 3 mps 743 mmHg 86%
    03:00 +5°C° 0 mm 4 mps 743 mmHg 88%
    04:00 +5°C° 0 mm 4 mps 743 mmHg 90%
    05:00 +4°C° 0 mm 4 mps 742 mmHg 90%
    06:00 +4°C° 0 mm 4 mps 742 mmHg 90%
    07:00 +4°C° 0 mm 4 mps 741 mmHg 90%
    08:00 +5°C° 0 mm 5 mps 741 mmHg 81%
    09:00 +5°C° 0 mm 6 mps 740 mmHg 73%
    10:00 +6°C° 0 mm 7 mps 739 mmHg 65%
    11:00 +6°C° 0.2 mm 7 mps 738 mmHg 64%
    12:00 +6°C° 0.2 mm 8 mps 736 mmHg 63%
    13:00 +5°C° 0 mm 8 mps 735 mmHg 65%
    14:00 +5°C° 1 mm 9 mps 734 mmHg 68%
    15:00 +5°C° 1 mm 9 mps 733 mmHg 70%
    16:00 +5°C° 1 mm 9 mps 731 mmHg 72%
    17:00 +5°C° 0.7 mm 9 mps 730 mmHg 74%
    18:00 +5°C° 0.7 mm 9 mps 730 mmHg 76%
    19:00 +5°C° 0.7 mm 9 mps 729 mmHg 79%
    20:00 +5°C° 1.2 mm 9 mps 728 mmHg 80%
    21:00 +6°C° 1.2 mm 9 mps 727 mmHg 82%
    22:00 +6°C° 1.2 mm 9 mps 726 mmHg 84%
    23:00 +6°C° 1 mm 9 mps 725 mmHg 83%

    Tomorrow, 24 October, Wednesday

    Time Temperature Precipitation Wind Pressure Humidity
    00:00 +6°C° 1 mm 8 mps 725 mmHg 82%
    01:00 +6°C° 1 mm 8 mps 724 mmHg 81%
    02:00 +6°C° 0.5 mm 8 mps 724 mmHg 79%
    03:00 +5°C° 0.5 mm 8 mps 723 mmHg 77%
    04:00 +5°C° 0.5 mm 9 mps 723 mmHg 75%
    05:00 +3°C° 0.3 mm 9 mps 723 mmHg 75%
    06:00 +3°C° 0.3 mm 9 mps 724 mmHg 76%
    07:00 +4°C° 0.3 mm 8 mps 724 mmHg 76%
    08:00 +3°C° 0.4 mm 9 mps 725 mmHg 71%
    09:00 +3°C° 0.4 mm 9 mps 725 mmHg 66%
    10:00 +3°C° 0.4 mm 10 mps 726 mmHg 61%
    11:00 +5°C° 0 mm 10 mps 726 mmHg 57%
    12:00 +5°C° 0 mm 10 mps 727 mmHg 54%
    13:00 +5°C° 0 mm 10 mps 727 mmHg 50%
    14:00 +3°C° 0 mm 10 mps 728 mmHg 52%
    15:00 +3°C° 0 mm 10 mps 728 mmHg 53%
    16:00 +3°C° 0 mm 9 mps 729 mmHg 54%
    17:00 +3°C° 0 mm 10 mps 729 mmHg 56%
    18:00 +2°C° 0 mm 10 mps 730 mmHg 58%
    19:00 +2°C° 0 mm 10 mps 730 mmHg 59%
    20:00 +2°C° 0 mm 10 mps 731 mmHg 60%
    21:00 +2°C° 0 mm 10 mps 732 mmHg 62%
    22:00 +2°C° 0 mm 9 mps 732 mmHg 63%
    23:00 +2°C° 0 mm 9 mps 733 mmHg 64%

    Day after tomorrow, 25 October, Thursday

    Time Temperature Precipitation Wind Pressure Humidity
    00:00 +2°C° 0 mm 8 mps 733 mmHg 66%
    01:00 +2°C° 0 mm 7 mps 734 mmHg 68%
    02:00 +2°C° 0 mm 7 mps 734 mmHg 69%
    03:00 0°C° 0 mm 7 mps 734 mmHg 71%
    04:00 +1°C° 0 mm 6 mps 734 mmHg 72%
    05:00 +1°C° 0 mm 6 mps 734 mmHg 73%
    06:00 +1°C° 0 mm 5 mps 734 mmHg 74%
    07:00 +1°C° 0 mm 5 mps 734 mmHg 74%
    08:00 +2°C° 0.1 mm 5 mps 733 mmHg 74%
    09:00 +3°C° 0.1 mm 6 mps 733 mmHg 73%
    10:00 +3°C° 0.1 mm 6 mps 732 mmHg 72%
    11:00 +4°C° 1.2 mm 6 mps 731 mmHg 77%
    12:00 +4°C° 1.2 mm 6 mps 730 mmHg 82%
    13:00 +4°C° 1.2 mm 6 mps 730 mmHg 88%
    14:00 +5°C° 0.4 mm 7 mps 729 mmHg 85%
    15:00 +6°C° 0.4 mm 8 mps 729 mmHg 83%
    16:00 +8°C° 0.4 mm 9 mps 728 mmHg 81%
    17:00 +7°C° 0.5 mm 8 mps 729 mmHg 79%
    18:00 +7°C° 0.5 mm 8 mps 729 mmHg 77%
    19:00 +6°C° 0.5 mm 8 mps 730 mmHg 75%
    20:00 +5°C° 0 mm 8 mps 730 mmHg 77%
    21:00 +5°C° 0 mm 7 mps 731 mmHg 78%
    22:00 +4°C° 0 mm 7 mps 732 mmHg 80%
    23:00 +4°C° 0 mm 7 mps 732 mmHg 81%

    26 October, Friday

    Time Temperature Precipitation Wind Pressure Humidity
    00:00 +4°C° 0 mm 7 mps 732 mmHg 82%
    01:00 +4°C° 0 mm 6 mps 733 mmHg 83%
    02:00 +4°C° 0 mm 6 mps 733 mmHg 84%
    03:00 +4°C° 0 mm 6 mps 733 mmHg 85%
    04:00 +3°C° 0 mm 6 mps 733 mmHg 85%
    05:00 +3°C° 0 mm 5 mps 734 mmHg 86%
    06:00 +3°C° 0 mm 5 mps 734 mmHg 87%
    07:00 +3°C° 0 mm 5 mps 734 mmHg 87%
    08:00 +5°C° 0 mm 5 mps 734 mmHg 83%
    09:00 +6°C° 0 mm 5 mps 734 mmHg 78%
    10:00 +7°C° 0 mm 5 mps 735 mmHg 74%
    11:00 +7°C° 0 mm 5 mps 734 mmHg 70%
    12:00 +8°C° 0 mm 5 mps 734 mmHg 65%
    13:00 +9°C° 0 mm 5 mps 734 mmHg 61%
    14:00 +8°C° 0 mm 5 mps 734 mmHg 65%
    15:00 +8°C° 0 mm 4 mps 733 mmHg 68%
    16:00 +8°C° 0 mm 3 mps 733 mmHg 72%
    17:00 +8°C° 0 mm 3 mps 733 mmHg 76%
    18:00 +7°C° 0 mm 4 mps 732 mmHg 79%
    19:00 +7°C° 0 mm 4 mps 732 mmHg 83%
    20:00 +7°C° 0 mm 4 mps 732 mmHg 82%
    21:00 +7°C° 0 mm 5 mps 732 mmHg 81%
    22:00 +7°C° 0 mm 5 mps 731 mmHg 80%
    23:00 +7°C° 0 mm 5 mps 731 mmHg 80%

    27 October, Saturday

    Time Temperature Precipitation Wind Pressure Humidity
    00:00 +8°C° 0 mm 6 mps 731 mmHg 80%
    01:00 +8°C° 0 mm 6 mps 730 mmHg 79%
    02:00 +8°C° 0 mm 6 mps 730 mmHg 79%
    03:00 +7°C° 0 mm 6 mps 731 mmHg 79%
    04:00 +7°C° 0 mm 6 mps 731 mmHg 79%
    05:00 +7°C° 0 mm 6 mps 731 mmHg 77%
    06:00 +7°C° 0 mm 6 mps 731 mmHg 75%
    07:00 +5°C° 0 mm 6 mps 732 mmHg 74%
    08:00 +7°C° 0 mm 6 mps 732 mmHg 69%
    09:00 +6°C° 0 mm 7 mps 733 mmHg 64%
    10:00 +6°C° 0 mm 7 mps 734 mmHg 59%
    11:00 +7°C° 0 mm 6 mps 734 mmHg 58%
    12:00 +7°C° 0 mm 6 mps 734 mmHg 57%
    13:00 +8°C° 0 mm 5 mps 735 mmHg 55%
    14:00 +7°C° 0 mm 5 mps 735 mmHg 57%
    15:00 +7°C° 0 mm 4 mps 735 mmHg 58%
    16:00 +7°C° 0 mm 3 mps 735 mmHg 60%
    17:00 +7°C° 0 mm 3 mps 736 mmHg 62%
    18:00 +6°C° 0 mm 2 mps 736 mmHg 64%
    19:00 +6°C° 0 mm 2 mps 737 mmHg 67%
    20:00 +6°C° 0 mm 2 mps 737 mmHg 68%
    21:00 +7°C° 0 mm 1 mps 737 mmHg 69%
    22:00 +6°C° 0 mm 1 mps 738 mmHg 70%
    23:00 +6°C° 0 mm 1 mps 738 mmHg 70%

    28 October, Sunday

    Time Temperature Precipitation Wind Pressure Humidity
    00:00 +6°C° 0 mm 1 mps 738 mmHg 71%
    01:00 +6°C° 0 mm 1 mps 738 mmHg 72%
    02:00 +6°C° 0.1 mm 1 mps 738 mmHg 73%
    03:00 +6°C° 0.1 mm 1 mps 738 mmHg 74%
    04:00 +6°C° 0.1 mm 1 mps 739 mmHg 75%
    05:00 +6°C° 0.1 mm 1 mps 739 mmHg 76%
    06:00 +5°C° 0.1 mm 2 mps 739 mmHg 78%
    07:00 +5°C° 0.1 mm 2 mps 739 mmHg 79%
    08:00 +4°C° 0.4 mm 3 mps 739 mmHg 77%
    09:00 +4°C° 0.4 mm 3 mps 739 mmHg 76%
    10:00 +5°C° 0.4 mm 4 mps 739 mmHg 75%
    11:00 +4°C° 0.6 mm 4 mps 739 mmHg 77%
    12:00 +3°C° 0.6 mm 5 mps 739 mmHg 78%
    13:00 +3°C° 0.6 mm 5 mps 738 mmHg 80%
    14:00 +3°C° 0.8 mm 5 mps 738 mmHg 82%
    15:00 +3°C° 0.8 mm 6 mps 738 mmHg 84%
    16:00 +3°C° 0.8 mm 6 mps 738 mmHg 86%
    17:00 +3°C° 1.3 mm 6 mps 738 mmHg 87%
    18:00 +3°C° 1.3 mm 6 mps 737 mmHg 88%
    19:00 +3°C° 1.3 mm 6 mps 737 mmHg 90%
    20:00 +3°C° 2.7 mm 6 mps 737 mmHg 91%
    21:00 +3°C° 2.7 mm 5 mps 737 mmHg 92%
    22:00 +3°C° 2.7 mm 5 mps 736 mmHg 92%
    23:00 +3°C° 1.1 mm 5 mps 736 mmHg 93%

    29 October, Monday

    Time Temperature Precipitation Wind Pressure Humidity
    00:00 +5°C° 1.1 mm 5 mps 736 mmHg 93%
    01:00 +5°C° 1.1 mm 4 mps 735 mmHg 94%
    02:00 +5°C° 0.5 mm 4 mps 735 mmHg 94%
    03:00 +5°C° 0.5 mm 4 mps 735 mmHg 94%
    04:00 +5°C° 0.5 mm 4 mps 734 mmHg 94%
    05:00 +5°C° 0.4 mm 3 mps 734 mmHg 94%
    06:00 +5°C° 0.4 mm 3 mps 734 mmHg 94%
    07:00 +5°C° 0.4 mm 3 mps 734 mmHg 94%
    08:00 +7°C° 0.6 mm 3 mps 734 mmHg 93%
    09:00 +8°C° 0.6 mm 3 mps 734 mmHg 92%
    10:00 +8°C° 0.6 mm 3 mps 734 mmHg 92%
    11:00 +8°C° 1.3 mm 3 mps 734 mmHg 92%
    12:00 +8°C° 1.3 mm 3 mps 734 mmHg 93%
    13:00 +9°C° 1.3 mm 3 mps 734 mmHg 94%
    14:00 +9°C° 1.2 mm 3 mps 734 mmHg 94%
    15:00 +8°C° 1.2 mm 3 mps 734 mmHg 94%
    16:00 +8°C° 1.2 mm 3 mps 734 mmHg 94%
    17:00 +8°C° 0.4 mm 3 mps 734 mmHg 94%
    18:00 +6°C° 0.4 mm 4 mps 734 mmHg 94%
    19:00 +5°C° 0.4 mm 4 mps 735 mmHg 93%
    20:00 +5°C° 0 mm 4 mps 735 mmHg 93%
    21:00 +4°C° 0 mm 4 mps 736 mmHg 92%
    22:00 +4°C° 0 mm 4 mps 736 mmHg 91%
    23:00 +4°C° 0 mm 4 mps 737 mmHg 91%
    Show more